CAPE
2019 2153 2062 1560 1524 998 1026 874 565 566 480 583 628 522 575 557 397 515 541 738 642 672 695 820 833 707 672 792 588 732 823 855 1082 1197 1241 1444 1590 1766 1327 1143 1136 1218 1373 1109 921 900 678 452 372 412 378 262 241 211 196 170 150 170 132 87 52 120 209 115 88 55 73 160 184 145 124 148 503 632 503 527 380 138 126 168 130 60 38 127 522
2049 1766 1508 2201 1181 1150 958 870 984 1032 678 810 822 705 478 888 807 733 542 664 832 618 644 564 562 760 690 726 963 1018 1045 1128 757 745 851 1000 1244 961 902 883 1078 1114 1197 1061 796 590 472 452 460 416 270 182 138 70 31 68 37 3 2 10 24 46 101 87 94 94 80 200 202 301 332 300 289 709 520 520 469 304 296 381 230 141 146 250 364
1651 2151 1666 1294 1298 1202 1163 1135 953 893 821 699 332 308 340 627 512 466 617 219 692 958 922 744 992 863 824 936 1106 1152 1296 1188 924 885 933 1083 1126 1119 982 722 1332 1344 1035 862 712 553 464 440 370 292 222 179 136 84 31 16 10 4 2 13 29 23 25 70 74 60 73 164 220 173 309 580 448 411 509 480 554 324 310 367 253 174 251 319 298
1356 2072 2000 1538 1233 1231 1118 1148 733 404 284 489 241 152 103 122 199 668 720 323 250 340 288 336 414 662 804 710 784 1077 1329 1619 1039 894 1061 991 1056 1050 932 1182 1358 1286 1116 944 622 534 467 458 341 294 291 214 178 143 108 46 24 9 6 12 29 42 42 61 89 87 80 90 287 278 196 273 464 693 767 477 668 463 370 390 458 453 251 302 366
1872 2110 1764 1494 1171 1143 847 771 699 689 446 118 129 44 14 6 28 2 6 5 114 234 734 837 739 644 663 764 933 890 1337 1706 1395 1050 1178 1410 1052 891 1050 792 672 1132 1430 1138 673 681 542 451 386 426 410 303 230 128 89 128 61 18 7 26 41 47 38 38 36 37 57 57 121 198 184 236 437 523 589 845 820 547 521 502 666 594 321 247 408
841 1398 1782 1498 1664 1047 939 722 632 640 626 490 287 231 118 104 14 1 79 154 588 250 165 197 264 583 829 778 670 827 960 1986 1881 1827 1959 1009 965 948 1328 1506 1384 1222 1210 1302 917 718 612 575 544 598 543 433 385 312 199 129 115 91 46 31 42 39 26 8 21 22 12 32 89 222 310 232 290 418 490 814 721 474 494 546 399 340 178 223 633
806 795 1281 1379 1588 1218 1024 994 843 555 899 764 549 213 121 40 24 186 0 0 6 44 25 95 468 598 632 732 766 833 826 884 1558 2149 1936 1724 1751 1991 1659 1189 1375 1497 1340 1112 1006 690 640 640 652 684 592 516 418 278 164 168 294 292 199 70 54 60 28 14 17 17 16 13 66 198 201 196 312 255 276 828 962 530 508 766 290 329 300 366 751
1593 1618 1646 1281 1961 1232 996 1149 999 1028 902 1052 876 759 538 562 815 879 608 441 180 267 117 170 208 182 429 537 613 555 717 1010 2066 2167 1185 905 1024 764 715 694 771 1190 1526 1510 1130 784 717 703 566 523 556 487 427 325 241 274 363 341 225 122 73 38 29 26 5 10 15 20 30 99 184 193 228 308 512 766 1275 707 626 1002 705 671 780 1076 1030
2241 1731 1718 1811 1714 1415 1372 1124 1200 1485 1190 1237 1060 917 884 1051 1146 1110 1088 922 655 450 388 321 383 509 463 496 554 846 983 1137 1344 1008 819 973 1406 904 629 490 649 1350 1395 1181 948 787 789 807 716 646 647 609 255 176 141 108 191 292 247 149 131 79 56 38 14 11 20 25 19 49 103 165 219 171 209 575 999 786 682 716 731 944 1236 1334 1559
2360 2320 1640 1568 2000 1328 1562 1225 1356 1268 1424 1217 1288 1288 1202 1286 1014 1116 1224 1088 1208 1095 1118 1028 354 148 318 702 971 873 809 736 736 543 615 1175 1390 1325 947 908 1020 1158 1260 1202 968 729 664 645 757 678 474 259 216 142 0 0 0 80 277 186 136 92 58 48 24 18 22 23 28 34 38 86 167 187 130 182 712 1019 714 893 931 861 944 812 1453
2655 2338 1327 1290 1815 1649 1602 1555 1437 1548 1516 1123 1038 1064 1300 1318 1358 1424 1594 1496 1448 1431 950 540 188 113 225 174 258 488 315 351 52 140 431 408 1117 1581 1144 979 916 768 661 632 660 730 774 766 768 990 746 642 770 464 352 168 0 84 160 148 131 106 70 58 37 23 28 24 24 30 34 34 36 82 194 230 474 1111 1018 968 837 874 707 638 761
2066 1924 1533 1819 2164 1763 1659 1730 1777 1738 1632 1619 1538 1486 1374 1434 1517 1642 1701 1456 1727 1527 988 845 617 519 244 278 565 492 692 182 0 44 198 300 494 1191 1310 752 565 552 521 516 558 710 786 1041 685 474 286 392 183 312 296 341 193 275 287 120 86 72 63 51 77 41 30 24 16 13 22 24 26 76 193 290 252 484 408 428 592 554 491 469 635
1709 1839 1802 2130 1926 1870 1878 1890 1902 1865 1739 1672 1726 1642 1520 1344 1515 1640 1620 1852 1598 1281 1184 708 600 829 942 1275 928 1047 922 235 85 134 142 349 558 802 1242 1299 1092 1045 1090 944 926 976 1196 1136 765 545 242 304 235 290 542 565 688 385 244 176 130 76 18 0 3 23 15 21 28 24 26 38 34 22 69 296 296 421 364 222 520 628 619 474 964
1410 1534 1806 2168 2019 1924 2015 1738 1842 1764 1910 1747 1616 1648 1685 1633 1766 1388 1396 1614 1261 906 903 827 844 901 985 1712 1758 1203 992 343 2 28 144 429 610 676 1154 1252 1304 1448 1479 1270 1003 1302 1732 953 615 510 548 720 668 399 569 740 766 644 476 278 187 63 2 1 0 2 4 14 32 41 30 45 42 28 18 50 171 348 412 428 694 756 417 304 591
1740 2070 2050 1990 2244 2210 2100 2003 1683 1867 1868 1718 1541 1563 1813 1796 1845 1770 1316 1063 1097 1298 1061 992 1153 760 1144 1484 1502 1238 100 599 0 186 197 136 0 16 684 1113 1346 1671 1713 1500 1584 1583 1192 1164 1048 946 1399 1488 795 578 1049 868 686 548 437 316 141 58 11 20 11 4 13 11 21 29 29 28 27 20 21 23 30 193 437 528 650 767 552 460 432
2026 1720 2002 2070 2157 2152 2064 1970 1816 1692 1805 1753 1608 1699 2052 2016 1724 2362 1936 1462 984 730 704 638 561 631 942 1312 908 913 449 0 208 246 130 72 0 230 864 1110 1401 1447 1311 1390 1400 1734 1652 1299 728 502 996 1017 464 522 537 572 576 398 262 218 85 40 31 18 6 1 9 7 8 10 9 12 13 11 8 9 60 274 290 368 1124 274 245 628 693
1462 1436 1720 2008 1936 2004 1736 1745 1756 1670 1727 1710 1551 1268 1308 1290 1515 1337 1080 814 788 970 1034 830 630 707 686 973 1392 1090 912 806 0 0 144 0 4 527 1046 1113 1305 1405 1632 1282 1091 1315 1492 1250 608 766 1468 1135 902 678 799 703 502 270 173 121 81 55 18 10 7 0 0 2 1 0 0 0 0 0 0 0 0 0 204 344 366 396 612 681 672
1462 1794 1608 1646 1805 1805 1542 1470 1532 1654 1712 1511 1508 1636 1575 1649 1823 2227 1259 877 904 840 650 752 695 1122 629 650 696 918 568 586 0 0 0 0 78 443 1097 1550 1573 1602 1353 1250 1524 1168 1138 1642 1089 801 815 668 862 880 695 516 252 144 108 76 66 51 16 20 18 0 0 0 1 1 1 1 0 0 0 0 0 0 1 51 103 276 387 308 210
1462 1544 1628 1598 1692 1617 1684 1638 1612 1696 1716 1743 1318 917 1014 1687 2189 978 833 1050 979 1011 732 509 569 314 214 166 224 710 444 249 197 375 412 352 194 770 1443 1756 1570 1411 1692 1608 1165 754 841 830 791 578 624 1197 854 713 520 214 38 23 85 58 49 64 36 36 14 0 4 10 7 0 194 66 0 0 0 0 0 0 0 14 122 243 482 373 168
1458 1621 1509 1663 1651 1729 1759 2090 1856 1511 1506 1179 1264 1782 1293 2813 917 1096 994 474 358 589 571 179 722 387 356 258 144 259 312 433 1302 510 387 304 0 335 1588 1604 1310 1324 1396 1300 1212 1072 1310 821 1102 374 356 661 893 557 140 84 10 32 54 61 98 69 50 21 15 7 24 29 29 115 259 250 6 0 0 0 0 0 0 0 97 155 602 1045 927
1876 1997 2031 1570 1632 1840 2009 2237 1973 1618 1426 1312 1397 1231 1290 1368 3588 1962 976 790 1064 1020 984 738 623 670 405 320 293 476 322 241 203 215 236 385 0 420 1143 1606 1419 1512 1596 1354 1198 895 763 706 618 612 682 256 149 66 70 90 53 42 82 112 133 127 72 24 43 16 28 30 40 39 164 56 14 20 0 0 0 0 0 0 26 145 306 656 716
1979 1770 1999 1802 2153 2634 2631 2826 2054 1701 1416 1256 1162 1220 2541 2593 1754 2068 1360 1116 1382 1494 1170 1132 932 746 660 404 371 278 194 309 163 553 741 442 559 501 555 457 933 569 686 936 886 770 957 1228 718 823 224 147 216 105 92 119 88 47 114 162 138 52 24 42 68 44 2 10 15 216 26 151 7 11 98 9 0 22 52 26 15 150 329 230 306
2038 1982 2190 2653 2288 2148 1495 1332 2004 1274 1045 1545 1120 1877 2354 1722 1289 744 1035 1608 1343 1080 1172 876 664 646 335 349 214 568 214 102 115 481 764 436 392 146 0 27 7 408 541 714 885 1072 980 1111 878 420 50 164 181 178 195 227 198 144 153 152 82 34 25 65 68 23 1 21 50 276 206 196 198 180 164 67 96 116 198 296 236 187 241 242 236
1690 2164 1992 2400 2572 2860 2312 1614 1379 2306 1980 984 2455 1626 1994 2208 2210 2274 1866 1281 1057 1120 1560 710 428 440 362 696 741 343 156 286 297 442 445 363 0 0 0 0 0 28 260 187 295 416 813 808 429 0 0 252 320 310 294 306 220 174 164 134 50 26 49 61 41 24 9 6 58 178 238 247 246 253 210 108 24 239 271 296 223 228 232 201 195
2190 1584 1752 2242 3361 2412 1968 2088 2565 1726 982 1731 1734 2076 1540 782 600 1080 1618 1493 1557 1925 1403 949 775 282 705 764 640 448 742 900 818 862 320 6 0 0 0 0 0 0 0 48 590 754 52 70 0 0 53 201 336 376 262 190 140 174 213 153 54 19 11 22 38 28 10 2 55 133 72 150 219 286 232 215 87 35 232 337 343 326 260 301 258
1778 1442 2093 2763 2006 1292 841 846 1836 1132 1444 1065 1074 779 492 385 548 1046 1122 986 1992 1030 1370 1678 1453 1286 1262 922 953 700 894 934 1186 550 174 0 0 0 0 0 0 0 0 6 1 0 0 0 127 64 55 123 202 251 168 0 52 64 124 119 62 38 26 5 6 13 19 2 1 41 44 17 55 86 113 248 325 252 94 224 378 220 187 212 360
2400 2506 2421 2120 1942 1659 2208 792 684 1394 990 604 488 552 632 1566 708 666 1514 1195 1223 1626 599 394 611 572 868 1062 733 730 542 659 386 11 0 0 0 0 0 0 0 0 3 126 1 2 16 243 338 12 21 124 169 235 68 24 35 79 121 89 69 24 50 5 6 2 8 13 8 0 2 2 2 5 18 23 194 195 124 154 106 168 182 87 360
1383 1530 1684 1923 1912 1543 1210 515 857 503 482 498 674 724 845 161 379 953 584 638 630 604 424 478 366 586 744 597 753 801 460 110 10 12 0 0 0 0 0 0 0 0 0 0 0 0 0 106 637 222 553 372 48 1 4 6 11 41 86 115 82 67 58 14 0 0 1 6 13 10 2 0 10 16 21 19 48 168 184 128 139 90 118 162 117
1939 1528 984 978 1257 1160 832 1024 675 342 413 533 8 0 4 216 804 54 0 0 0 0 65 23 75 1 0 411 380 320 134 0 0 0 0 0 0 0 0 0 0 0 0 0 0 0 61 160 0 0 0 1 2 0 0 20 20 31 65 87 94 94 69 47 6 3 2 4 7 14 21 9 3 3 3 6 55 71 53 112 56 4 2 64 136
536 404 452 350 372 560 357 139 313 627 223 87 0 0 0 0 64 54 0 0 0 0 0 0 0 0 0 0 0 0 0 0 0 0 0 0 0 0 0 0 0 0 0 0 0 0 15 0 0 0 0 0 0 0 0 0 10 30 47 42 67 104 110 48 28 22 7 4 4 7 16 29 12 7 4 1 2 17 16 5 5 7 30 81 121
951 367 401 244 350 410 204 211 489 1575 582 324 60 0 0 0 0 0 0 0 0 0 0 0 0 0 0 0 0 0 0 0 0 0 0 0 0 0 0 0 0 0 0 0 20 0 0 0 0 0 0 0 0 0 0 0 0 12 20 22 38 55 82 106 112 68 24 8 14 8 12 20 38 28 17 4 1 2 18 12 8 3 5 18 21
1021 573 358 522 1024 1164 542 754 700 666 822 1052 777 244 6 32 218 42 0 0 0 0 0 0 0 0 0 0 0 0 0 0 0 0 0 0 0 0 0 0 0 0 0 0 81 0 0 0 0 0 0 0 0 0 0 0 0 0 0 5 0 14 27 56 68 56 14 26 17 38 22 9 26 39 32 21 7 6 1 0 5 6 2 10 7
534 368 561 1142 737 910 684 910 956 595 470 707 753 760 764 453 302 0 0 0 0 0 0 0 0 0 0 0 0 0 0 0 0 0 0 0 0 0 0 0 0 0 0 0 0 0 0 0 0 0 0 0 0 5 9 1 0 0 0 0 0 0 0 10 26 37 6 12 14 65 66 33 11 33 44 30 20 20 6 8 1 2 3 2 1
720 848 639 522 1144 1294 748 887 556 885 776 1471 1140 938 705 575 306 0 0 0 0 0 0 0 0 0 0 0 0 0 0 0 0 0 0 0 0 0 0 0 0 0 0 0 0 0 0 0 1 2 2 1 1 2 5 6 1 2 2 3 8 8 6 0 4 7 9 4 8 2 75 59 24 14 36 45 39 30 30 30 20 17 9 4 8
1069 804 493 621 578 617 724 1470 1098 867 658 778 846 676 772 746 527 134 5 0 0 0 0 0 0 0 0 0 0 0 0 0 0 0 0 0 0 0 0 1 24 23 0 0 0 0 0 0 0 0 0 1 4 4 3 2 1 0 0 0 0 0 0 0 0 0 1 5 32 40 50 61 45 45 41 42 49 52 50 58 52 48 49 10 0
455 444 225 374 581 1002 1453 1772 1372 1151 1272 1071 904 486 545 526 464 318 117 142 175 95 1 0 0 0 0 0 0 0 0 0 0 0 0 0 0 0 0 2 0 0 0 0 0 0 2 2 0 1 3 6 3 5 5 5 4 2 0 0 0 0 0 0 0 0 0 0 0 8 20 31 37 48 58 62 52 46 54 80 74 76 80 84 72
275 464 762 939 1186 1166 1292 1431 1544 1363 880 645 522 486 348 195 108 135 172 108 63 27 16 1 1 0 0 0 0 0 0 0 0 0 0 0 0 0 0 0 0 0 0 0 1 2 4 2 2 2 3 3 5 2 2 2 2 1 0 0 0 0 0 0 0 0 0 0 0 0 0 12 23 30 29 38 50 49 64 76 89 94 97 103 103
1246 862 983 1185 1084 1164 934 1122 696 554 860 506 570 358 116 64 33 4 6 6 8 6 9 13 0 0 4 6 0 2 16 0 0 0 0 0 0 0 0 0 0 0 0 2 2 4 7 8 8 3 0 1 0 0 0 0 0 0 0 0 0 0 0 0 0 0 0 0 0 1 0 0 1 11 15 17 22 33 42 63 82 71 78 89 100
1058 395 429 614 1027 537 823 769 537 555 481 354 128 86 3 1 0 4 1 0 0 1 0 0 0 0 0 0 0 0 0 0 1 6 4 1 0 0 0 0 0 0 0 2 3 9 11 8 9 9 5 0 0 0 0 0 0 0 0 0 0 0 0 0 0 0 0 0 0 0 0 0 0 0 0 0 1 8 22 36 57 56 62 70 87
987 861 593 372 245 570 395 410 522 402 243 166 24 1 0 0 0 0 0 1 3 5 2 1 0 0 0 0 0 0 0 0 0 0 0 0 0 0 0 0 0 0 0 0 1 5 1 2 1 6 4 0 0 0 0 0 0 0 0 0 0 0 0 0 0 0 0 0 0 0 0 0 0 0 0 0 0 0 0 6 10 26 34 46 52
777 885 614 305 244 512 816 397 407 395 178 98 6 0 0 0 0 0 0 4 2 2 2 0 0 0 0 0 0 0 0 0 0 0 0 0 0 0 0 0 0 0 0 0 0 1 0 0 0 0 1 0 0 0 0 0 0 0 0 0 0 0 0 0 0 0 0 0 0 0 0 0 0 0 0 0 0 0 0 0 0 2 9 28 33
500 667 618 774 340 559 478 472 431 293 71 3 1 0 0 0 0 0 2 5 5 6 2 0 0 0 0 0 0 0 0 0 0 0 0 0 0 0 0 0 0 0 0 0 0 0 0 0 0 0 0 0 0 0 0 0 0 0 0 0 0 0 0 0 0 0 0 0 0 0 0 0 0 0 0 0 0 0 0 0 0 0 0 0 0
670 754 1197 976 1015 601 414 244 200 70 55 10 4 0 0 0 0 0 0 1 4 2 0 0 0 0 0 0 0 0 0 0 0 0 0 0 0 0 0 0 0 0 0 0 0 0 0 0 0 0 0 0 0 0 0 0 0 0 0 0 0 0 0 0 0 0 0 0 0 0 0 0 0 0 0 0 0 0 0 0 0 0 0 0 0
419 488 492 320 340 306 186 147 80 50 8 9 11 5 0 0 0 0 0 0 2 2 4 0 0 0 0 0 0 0 0 3 5 1 3 2 2 0 0 0 0 0 0 0 0 0 0 0 0 0 0 0 0 0 0 0 0 0 0 0 0 0 0 0 0 0 0 0 0 0 0 0 0 0 0 0 0 0 0 0 0 0 0 0 0
175 202 325 301 194 136 68 22 0 2 4 5 1 0 0 0 0 0 0 0 0 0 0 0 0 0 0 1 1 4 3 1 2 4 1 1 1 2 0 0 0 7 0 0 0 0 0 0 0 0 0 0 0 0 0 0 0 0 0 0 0 0 0 0 0 0 0 0 0 0 0 0 0 0 0 0 0 0 0 0 0 0 0 0 0
144 103 131 119 139 26 18 11 6 5 2 2 4 0 0 0 0 1 1 1 0 0 0 0 0 0 0 0 0 4 2 1 2 2 1 0 3 4 6 3 0 0 0 0 0 0 0 0 0 0 0 0 0 0 0 0 0 0 0 0 0 0 0 0 0 0 0 0 0 0 0 0 0 0 0 0 0 0 0 0 0 0 0 0 0
0 0 0 6 67 24 18 10 6 5 6 3 5 2 1 2 1 0 0 0 0 29 0 0 0 0 0 0 0 0 0 1 0 0 1 0 0 2 2 0 0 0 0 0 0 0 0 0 0 0 0 0 0 0 0 0 0 0 0 0 0 0 0 0 0 0 0 0 0 0 0 0 0 0 0 0 0 0 0 0 0 0 0 0 0
0 2 4 5 21 15 17 7 13 17 13 6 6 4 8 6 3 1 1 1 1 1 3 2 0 0 0 0 0 0 0 0 0 1 4 0 2 0 0 0 0 0 0 0 0 0 0 0 0 0 0 0 0 0 0 0 0 0 0 0 0 0 0 0 0 0 0 0 0 0 0 0 0 0 0 0 0 0 0 0 0 0 0 0 0
2 2 2 0 1 1 1 1 2 4 8 10 7 11 13 15 4 8 4 3 0 0 0 0 0 0 0 0 0 0 0 0 0 0 0 0 0 0 0 0 0 0 0 0 0 0 0 0 0 0 0 0 0 0 0 0 0 0 0 0 0 0 0 0 0 0 0 0 0 0 0 0 0 0 0 0 0 0 0 0 0 0 0 0 0
0 0 0 1 7 8 11 9 6 4 4 4 6 3 3 6 5 2 3 2 0 0 0 0 0 0 0 0 0 0 0 0 0 0 0 0 0 0 0 0 0 0 0 0 0 0 0 0 0 0 0 0 0 0 0 0 0 0 0 0 0 0 0 0 0 0 0 0 0 0 0 0 0 0 0 0 0 0 0 0 0 0 0 0 0
4 2 2 3 2 4 17 11 12 0 1 4 6 5 2 0 0 0 0 0 2 2 0 0 0 0 0 0 0 0 0 0 0 0 0 0 0 0 0 0 0 0 0 0 0 0 0 0 0 0 0 0 0 0 0 0 0 0 0 0 0 0 0 0 0 0 0 0 0 0 0 0 0 0 0 0 0 0 0 0 0 0 0 0 0
Wind_Speed
37 36 36 36 36 38 38 39 40 42 41 40 37 36 36 36 35 34 35 35 36 36 36 37 37 38 38 38 37 38 40 40 41 41 43 44 44 45 45 47 47 46 46 45 44 44 46 47 47 47 46 43 41 40 40 40 41 43 43 nan nan 42 42 41 nan nan nan 35 35 39 41 40 40 43 45 49 49 47 45 46 47 nan nan 38 38
37 38 36 39 39 37 36 39 42 43 41 39 38 36 36 35 37 37 36 37 38 38 37 37 38 39 39 39 39 40 40 40 39 42 42 44 45 45 46 48 47 48 48 46 45 47 47 46 44 44 45 43 40 nan nan nan nan nan nan nan nan nan 43 nan nan nan nan 36 36 39 41 42 37 42 42 44 46 49 48 48 50 47 42 40 41
38 38 39 39 39 38 39 41 43 43 40 39 37 36 36 36 37 36 37 37 39 39 39 39 39 39 39 40 42 42 43 42 43 43 41 43 46 46 47 47 48 48 47 46 46 47 45 43 40 41 42 42 40 nan nan nan nan nan nan nan nan nan nan nan nan nan nan 35 37 37 41 43 40 38 40 43 47 49 47 45 46 46 44 42 42
41 41 40 40 39 40 42 42 43 42 41 39 37 34 32 33 35 38 39 40 40 40 40 40 42 42 42 42 42 42 43 46 45 45 44 46 47 45 45 46 46 46 45 47 48 46 43 41 39 39 40 40 39 38 38 nan nan nan nan nan nan nan nan nan nan nan nan nan 37 38 39 43 43 39 42 43 48 51 50 47 46 43 40 40 41
44 43 41 41 40 40 43 45 44 40 36 35 36 nan nan nan nan nan nan nan 41 41 43 44 43 41 41 43 43 43 43 46 43 44 44 48 49 49 48 47 44 40 41 45 47 43 42 39 38 39 38 36 37 36 nan 35 nan nan nan nan nan nan nan nan nan nan nan nan 40 39 37 38 40 39 40 42 45 49 47 46 47 43 38 37 39
41 40 42 42 41 43 45 46 43 40 38 37 37 36 36 37 nan nan nan 43 44 44 44 45 45 44 42 42 42 44 43 47 47 44 44 44 48 48 48 48 45 40 39 43 44 41 41 39 37 37 36 34 33 33 33 33 34 nan nan nan nan nan nan nan nan nan nan nan nan 41 40 38 35 35 35 38 39 42 39 41 47 45 38 34 34
38 40 39 43 43 44 47 47 42 38 38 38 38 38 38 nan nan 39 nan nan nan nan nan nan 45 45 43 42 42 42 42 41 43 46 43 45 46 43 44 44 40 39 40 41 40 39 39 38 36 36 35 34 33 32 33 33 34 35 35 nan nan nan nan nan nan nan nan nan nan 44 43 40 35 31 34 37 38 36 35 42 44 40 33 29 31
39 40 40 40 44 46 47 47 42 39 38 39 41 41 40 40 41 44 45 44 43 43 43 45 44 43 42 42 42 41 41 42 46 48 50 45 44 44 46 41 35 34 39 40 38 36 35 35 33 33 34 35 35 36 35 34 34 34 34 34 nan nan nan nan nan nan nan nan nan nan 47 44 38 29 32 38 40 37 36 41 42 37 31 30 30
40 40 42 44 44 47 49 46 41 41 42 42 43 42 42 43 45 47 48 48 47 45 45 46 45 44 43 42 41 42 41 43 49 48 47 43 45 44 39 36 35 36 39 37 34 32 31 32 31 31 33 34 36 36 36 36 36 35 33 32 30 nan nan nan nan nan nan nan nan nan 50 48 42 35 31 35 38 37 36 38 39 38 34 33 34
39 42 45 44 45 48 50 45 42 42 43 44 44 44 44 45 46 48 49 49 48 48 48 48 45 44 43 43 43 43 46 49 47 51 47 44 45 46 42 37 36 36 34 32 30 27 27 29 30 29 34 38 37 36 nan nan nan nan 36 33 29 nan nan nan nan nan nan nan nan nan nan nan 44 37 30 30 36 38 37 38 38 39 38 34 36
42 44 46 43 46 51 50 45 43 45 46 45 45 44 45 47 48 49 50 51 50 50 49 46 44 42 40 40 41 46 51 50 nan 38 41 43 43 43 42 40 39 37 33 30 26 24 25 27 28 30 32 32 37 40 37 37 nan nan 34 31 28 27 nan nan nan nan nan nan nan nan nan nan nan nan 31 31 33 32 34 38 40 42 39 36 33
43 43 42 46 51 52 49 46 47 47 46 47 47 46 46 48 50 50 51 51 51 52 49 47 45 43 41 41 45 51 50 51 nan nan 47 41 38 40 40 38 37 36 35 30 26 23 22 21 26 31 28 24 26 31 38 37 39 38 33 27 nan nan nan nan nan nan nan nan nan nan nan nan nan nan 34 30 31 30 36 36 41 43 42 35 33
45 43 44 49 54 51 48 48 50 49 49 48 48 48 49 50 50 50 50 53 53 53 51 50 48 46 45 47 49 49 51 48 nan 40 37 36 38 39 37 34 32 31 30 28 25 23 22 31 32 27 27 25 31 31 34 36 42 35 28 24 24 nan nan nan nan nan nan nan nan nan nan nan nan nan nan 29 33 33 35 35 37 41 42 36 33
45 46 48 51 51 50 48 49 50 50 50 50 50 49 50 51 52 53 52 53 53 51 50 50 50 48 47 50 47 49 51 49 nan nan 33 33 35 37 35 31 28 26 26 25 24 24 28 34 32 30 28 32 36 35 34 37 39 35 31 27 27 nan nan nan nan nan nan nan nan nan nan nan nan nan nan nan 30 33 37 37 38 43 48 39 39
46 48 51 49 49 49 50 50 50 49 50 51 51 52 52 53 53 52 53 52 50 50 49 50 50 48 49 50 48 48 nan 51 nan 39 37 38 nan nan 35 31 27 25 25 23 23 26 25 25 32 33 35 38 41 37 38 39 37 35 30 26 25 nan nan nan nan nan nan nan nan nan nan nan nan nan nan nan nan 30 34 37 37 42 42 38 45
46 48 47 48 49 50 50 51 50 50 51 52 52 53 55 57 54 51 50 48 45 44 47 50 49 47 49 50 47 47 48 nan 48 48 45 nan nan 41 39 33 28 25 24 23 24 27 29 26 26 29 32 33 33 37 41 38 36 32 27 23 nan nan nan nan nan nan nan nan nan nan nan nan nan nan nan nan nan 32 34 38 37 40 39 41 42
47 45 45 47 48 50 51 52 51 51 51 53 53 54 55 56 53 53 51 46 41 43 47 48 45 43 46 48 51 46 42 43 nan nan 46 nan nan 41 39 32 27 24 24 24 25 25 28 32 29 29 31 32 39 41 37 38 35 31 25 22 nan nan nan nan nan nan nan nan nan nan nan nan nan nan nan nan nan nan 33 35 32 33 36 41 42
42 42 44 46 48 50 52 51 51 52 53 53 54 54 57 57 57 58 55 47 43 45 45 44 41 43 43 42 48 49 43 42 nan nan nan nan nan 38 35 31 27 25 23 23 25 25 24 23 30 27 27 28 35 32 34 34 34 29 24 nan nan nan nan nan nan nan nan nan nan nan nan nan nan nan nan nan nan nan nan nan 30 33 35 39 39
40 42 44 46 48 50 50 51 52 52 53 52 53 52 55 56 57 57 55 51 46 44 42 40 42 41 36 39 42 48 43 44 44 38 39 39 40 37 32 28 25 24 23 23 25 25 24 24 23 25 25 27 34 30 33 34 nan nan nan nan nan nan nan nan nan nan nan nan nan nan 33 nan nan nan nan nan nan nan nan nan 26 31 35 38 38
41 43 44 45 46 47 49 52 52 50 50 51 51 53 54 55 56 56 55 51 46 44 43 46 48 46 40 39 41 41 38 34 36 36 34 36 nan 34 30 26 23 22 22 22 24 25 26 26 28 34 33 33 30 30 32 nan nan nan nan nan nan nan nan nan nan nan nan nan nan 36 43 35 nan nan nan nan nan nan nan nan nan 24 31 37 36
43 45 44 44 45 46 50 54 53 50 50 50 50 50 51 52 54 54 52 49 46 42 41 46 44 40 39 38 40 40 38 33 28 20 26 33 nan 33 27 23 21 21 22 23 24 24 25 24 25 35 36 31 28 nan nan nan nan nan nan 20 21 15 nan nan nan nan nan nan nan nan 37 nan nan nan nan nan nan nan nan nan nan 20 23 31 33
44 44 42 42 45 49 49 49 49 52 51 50 51 51 52 55 53 52 47 44 40 37 38 39 40 37 36 35 38 40 37 30 24 19 32 37 36 32 26 23 23 20 19 19 19 22 23 23 25 32 27 24 22 25 nan 27 nan nan 19 13 11 nan nan nan nan nan nan nan nan 37 nan 38 nan nan nan nan nan nan nan nan nan 23 22 24 28
43 40 41 45 48 50 50 49 51 56 50 52 54 55 53 50 49 47 45 43 40 37 38 40 41 42 40 38 38 38 36 32 22 26 38 39 32 29 nan nan nan 22 19 18 19 19 21 22 23 23 nan 18 19 22 25 24 26 24 14 11 nan nan nan nan nan nan nan nan nan 40 41 42 41 39 36 nan nan 24 24 26 27 27 26 26 29
38 38 44 45 47 49 52 52 51 57 57 55 55 54 52 51 50 47 46 42 41 39 41 45 43 41 38 40 43 44 39 36 32 38 38 33 nan nan nan nan nan nan 20 19 19 17 19 21 19 nan nan 15 16 22 24 24 22 18 16 13 nan nan nan nan nan nan nan nan nan 42 43 43 43 42 40 36 nan 27 23 25 27 28 28 27 28
36 42 42 44 50 52 52 54 58 58 57 56 54 52 51 51 47 45 44 42 41 44 45 43 44 42 39 40 43 41 39 38 39 40 37 nan nan nan nan nan nan nan nan nan 20 19 nan nan nan nan nan 15 17 21 25 22 18 17 18 13 nan nan nan nan nan nan nan nan nan 37 nan 45 43 39 37 38 nan nan 31 30 30 30 29 30 31
40 42 42 46 52 56 55 55 60 60 59 57 55 53 48 47 46 45 42 41 47 45 43 42 42 42 42 43 41 40 40 41 41 40 38 nan nan nan nan nan nan nan nan nan nan nan nan nan 16 nan nan 19 21 23 22 nan nan nan 17 16 nan nan nan nan nan nan nan nan nan nan nan nan nan nan 36 39 42 38 nan 32 34 33 31 31 34
45 48 47 48 51 54 58 61 60 60 59 55 54 53 52 51 47 43 45 42 44 44 42 41 41 41 43 41 39 40 40 39 40 nan nan nan nan nan nan nan nan nan nan 22 nan nan nan 14 18 nan nan 17 19 22 nan nan nan nan 20 nan nan nan nan nan nan nan nan nan nan nan nan nan nan nan nan nan 41 41 38 36 35 32 32 nan 31
48 48 49 53 57 59 63 62 60 60 58 54 51 52 52 48 46 48 45 42 41 41 41 42 41 41 42 42 40 41 41 42 nan nan nan nan nan nan nan nan nan nan nan nan nan nan nan 13 17 20 19 19 nan nan nan nan nan nan nan 20 nan nan nan nan nan nan nan nan nan nan nan nan nan nan nan nan nan 41 40 40 40 nan 39 36 33
48 46 50 57 62 63 62 61 58 58 57 61 nan nan nan 45 47 nan nan nan nan nan nan nan nan nan nan 39 37 40 40 nan nan nan nan nan nan nan nan nan nan nan nan nan nan nan nan 16 nan nan nan nan nan nan nan nan nan nan nan nan nan nan nan nan nan nan nan nan nan nan nan nan nan nan nan nan nan nan nan 41 nan nan nan nan 46
50 51 56 60 61 65 62 58 57 57 59 nan nan nan nan nan nan nan nan nan nan nan nan nan nan nan nan nan nan nan nan nan nan nan nan nan nan nan nan nan nan nan nan nan nan nan nan nan nan nan nan nan nan nan nan nan nan nan nan nan nan 19 15 nan nan nan nan nan nan nan nan nan nan nan nan nan nan nan nan nan nan nan nan nan 48
56 57 59 59 62 65 61 58 58 60 57 58 nan nan nan nan nan nan nan nan nan nan nan nan nan nan nan nan nan nan nan nan nan nan nan nan nan nan nan nan nan nan nan nan nan nan nan nan nan nan nan nan nan nan nan nan nan nan nan nan nan nan nan 16 11 nan nan nan nan nan nan nan nan nan nan nan nan nan nan nan nan nan nan nan nan
57 55 56 63 65 60 59 56 56 54 54 56 61 58 nan nan 48 nan nan nan nan nan nan nan nan nan nan nan nan nan nan nan nan nan nan nan nan nan nan nan nan nan nan nan nan nan nan nan nan nan nan nan nan nan nan nan nan nan nan nan nan nan nan nan nan nan nan nan nan nan nan nan nan nan nan nan nan nan nan nan nan nan nan nan nan
56 56 57 60 62 62 57 56 54 52 52 54 51 52 52 50 47 nan nan nan nan nan nan nan nan nan nan nan nan nan nan nan nan nan nan nan nan nan nan nan nan nan nan nan nan nan nan nan nan nan nan nan nan nan nan nan nan nan nan nan nan nan nan nan nan nan nan nan nan nan nan nan nan nan nan nan nan nan nan nan nan nan nan nan nan
54 53 54 56 58 59 57 53 53 52 51 47 45 44 42 43 46 nan nan nan nan nan nan nan nan nan nan nan nan nan nan nan nan nan nan nan nan nan nan nan nan nan nan nan nan nan nan nan nan nan nan nan nan nan nan nan nan nan nan nan nan nan nan nan nan nan nan nan nan nan nan nan nan nan nan nan nan nan nan nan nan nan nan nan nan
53 52 51 52 52 51 52 57 57 55 52 45 45 42 45 45 45 45 nan nan nan nan nan nan nan nan nan nan nan nan nan nan nan nan nan nan nan nan nan nan nan nan nan nan nan nan nan nan nan nan nan nan nan nan nan nan nan nan nan nan nan nan nan nan nan nan nan nan nan nan nan nan nan nan nan nan nan nan nan nan nan nan nan nan nan
52 50 52 51 50 50 53 51 53 50 49 46 44 47 47 46 44 41 40 41 41 nan nan nan nan nan nan nan nan nan nan nan nan nan nan nan nan nan nan nan nan nan nan nan nan nan nan nan nan nan nan nan nan nan nan nan nan nan nan nan nan nan nan nan nan nan nan nan nan nan nan nan nan nan nan nan nan nan nan nan nan nan nan nan nan
49 50 56 52 53 54 52 52 50 50 48 45 45 46 46 45 43 43 42 42 nan nan nan nan nan nan nan nan nan nan nan nan nan nan nan nan nan nan nan nan nan nan nan nan nan nan nan nan nan nan nan nan nan nan nan nan nan nan nan nan nan nan nan nan nan nan nan nan nan nan nan nan nan nan nan nan nan nan nan nan nan nan nan 53 54
53 52 49 52 54 52 49 47 49 48 44 43 43 44 44 nan nan nan nan nan nan nan nan nan nan nan nan nan nan nan nan nan nan nan nan nan nan nan nan nan nan nan nan nan nan nan nan nan nan nan nan nan nan nan nan nan nan nan nan nan nan nan nan nan nan nan nan nan nan nan nan nan nan nan nan nan nan nan nan nan nan nan nan nan 51
50 49 49 55 55 52 48 42 42 41 42 40 41 nan nan nan nan nan nan nan nan nan nan nan nan nan nan nan nan nan nan nan nan nan nan nan nan nan nan nan nan nan nan nan nan nan nan nan nan nan nan nan nan nan nan nan nan nan nan nan nan nan nan nan nan nan nan nan nan nan nan nan nan nan nan nan nan nan nan nan nan nan nan nan nan
47 45 43 40 43 51 50 41 38 40 41 39 nan nan nan nan nan nan nan nan nan nan nan nan nan nan nan nan nan nan nan nan nan nan nan nan nan nan nan nan nan nan nan nan nan nan nan nan nan nan nan nan nan nan nan nan nan nan nan nan nan nan nan nan nan nan nan nan nan nan nan nan nan nan nan nan nan nan nan nan nan nan nan nan nan
47 44 42 46 46 43 44 42 40 40 39 nan nan nan nan nan nan nan nan nan nan nan nan nan nan nan nan nan nan nan nan nan nan nan nan nan nan nan nan nan nan nan nan nan nan nan nan nan nan nan nan nan nan nan nan nan nan nan nan nan nan nan nan nan nan nan nan nan nan nan nan nan nan nan nan nan nan nan nan nan nan nan nan nan nan
47 45 44 44 43 39 37 40 42 42 nan nan nan nan nan nan nan nan nan nan nan nan nan nan nan nan nan nan nan nan nan nan nan nan nan nan nan nan nan nan nan nan nan nan nan nan nan nan nan nan nan nan nan nan nan nan nan nan nan nan nan nan nan nan nan nan nan nan nan nan nan nan nan nan nan nan nan nan nan nan nan nan nan nan nan
49 47 46 42 39 37 40 40 42 nan nan nan nan nan nan nan nan nan nan nan nan nan nan nan nan nan nan nan nan nan nan nan nan nan nan nan nan nan nan nan nan nan nan nan nan nan nan nan nan nan nan nan nan nan nan nan nan nan nan nan nan nan nan nan nan nan nan nan nan nan nan nan nan nan nan nan nan nan nan nan nan nan nan nan nan
48 48 46 41 43 43 42 41 nan nan nan nan nan nan nan nan nan nan nan nan nan nan nan nan nan nan nan nan nan nan nan nan nan nan nan nan nan nan nan nan nan nan nan nan nan nan nan nan nan nan nan nan nan nan nan nan nan nan nan nan nan nan nan nan nan nan nan nan nan nan nan nan nan nan nan nan nan nan nan nan nan nan nan nan nan
46 46 46 45 44 43 nan nan nan nan nan nan nan nan nan nan nan nan nan nan nan nan nan nan nan nan nan nan nan nan nan nan nan nan nan nan nan nan nan nan nan nan nan nan nan nan nan nan nan nan nan nan nan nan nan nan nan nan nan nan nan nan nan nan nan nan nan nan nan nan nan nan nan nan nan nan nan nan nan nan nan nan nan nan nan
44 43 43 41 41 nan nan nan nan nan nan nan nan nan nan nan nan nan nan nan nan nan nan nan nan nan nan nan nan nan nan nan nan nan nan nan nan nan nan nan nan nan nan nan nan nan nan nan nan nan nan nan nan nan nan nan nan nan nan nan nan nan nan nan nan nan nan nan nan nan nan nan nan nan nan nan nan nan nan nan nan nan nan nan nan
nan nan nan nan nan nan nan nan nan nan nan nan nan nan nan nan nan nan nan nan nan nan nan nan nan nan nan nan nan nan nan nan nan nan nan nan nan nan nan nan nan nan nan nan nan nan nan nan nan nan nan nan nan nan nan nan nan nan nan nan nan nan nan nan nan nan nan nan nan nan nan nan nan nan nan nan nan nan nan nan nan nan nan nan nan
nan nan nan nan nan nan nan nan nan nan nan nan nan nan nan nan nan nan nan nan nan nan nan nan nan nan nan nan nan nan nan nan nan nan nan nan nan nan nan nan nan nan nan nan nan nan nan nan nan nan nan nan nan nan nan nan nan nan nan nan nan nan nan nan nan nan nan nan nan nan nan nan nan nan nan nan nan nan nan nan nan nan nan nan nan
nan nan nan nan nan nan nan nan nan nan nan nan nan nan nan nan nan nan nan nan nan nan nan nan nan nan nan nan nan nan nan nan nan nan nan nan nan nan nan nan nan nan nan nan nan nan nan nan nan nan nan nan nan nan nan nan nan nan nan nan nan nan nan nan nan nan nan nan nan nan nan nan nan nan nan nan nan nan nan nan nan nan nan nan nan
nan nan nan nan nan nan nan nan nan nan nan nan nan nan nan nan nan nan nan nan nan nan nan nan nan nan nan nan nan nan nan nan nan nan nan nan nan nan nan nan nan nan nan nan nan nan nan nan nan nan nan nan nan nan nan nan nan nan nan nan nan nan nan nan nan nan nan nan nan nan nan nan nan nan nan nan nan nan nan nan nan nan nan nan nan
nan nan nan nan nan nan nan nan nan nan nan nan nan nan nan nan nan nan nan nan nan nan nan nan nan nan nan nan nan nan nan nan nan nan nan nan nan nan nan nan nan nan nan nan nan nan nan nan nan nan nan nan nan nan nan nan nan nan nan nan nan nan nan nan nan nan nan nan nan nan nan nan nan nan nan nan nan nan nan nan nan nan nan nan nan
Wind_Direction
309 309 307 306 306 307 307 307 313 313 313 312 312 313 312 311 309 308 313 318 316 317 319 319 319 319 319 317 314 314 312 314 315 315 316 317 316 316 316 313 309 307 306 302 300 296 295 295 293 290 288 285 283 280 277 274 271 269 266 nan nan 260 260 260 nan nan nan 253 244 238 240 241 233 235 235 235 233 236 240 239 241 nan nan 234 234
310 308 305 308 310 312 310 311 315 315 313 312 314 314 312 312 315 316 319 322 322 323 322 320 320 320 319 316 314 313 313 313 314 316 317 317 315 315 316 312 310 308 307 305 301 298 297 297 293 289 287 285 283 nan nan nan nan nan nan nan nan nan 256 nan nan nan nan 246 245 241 242 249 236 236 234 235 235 237 240 240 240 242 242 238 236
312 308 309 311 314 314 313 313 314 314 314 314 318 318 317 320 322 323 322 319 323 324 322 321 318 318 318 318 316 316 316 318 314 312 314 315 315 316 316 312 308 308 308 305 303 300 301 299 295 290 288 287 286 nan nan nan nan nan nan nan nan nan nan nan nan nan nan 240 243 239 240 245 246 238 236 233 236 239 240 240 239 241 244 244 239
315 313 314 314 314 314 314 314 315 316 317 316 318 317 314 314 314 317 319 320 321 321 322 323 325 324 321 319 319 317 317 315 316 318 317 315 313 315 314 311 310 310 307 304 304 304 303 302 298 293 290 289 288 286 283 nan nan nan nan nan nan nan nan nan nan nan nan nan 239 239 238 241 241 241 239 236 238 239 241 241 238 238 242 242 239
314 315 317 316 313 314 314 314 315 315 316 318 319 nan nan nan nan nan nan nan 323 326 327 321 318 319 321 319 318 318 318 319 320 321 323 317 316 317 314 310 310 310 306 306 308 309 307 304 298 294 292 290 289 286 nan 282 nan nan nan nan nan nan nan nan nan nan nan nan 232 234 236 239 242 244 243 240 237 238 238 239 239 237 238 239 238
309 312 316 313 312 314 312 313 315 317 320 322 321 318 312 311 nan nan nan 328 324 322 322 323 324 324 322 321 321 320 320 320 323 324 319 318 317 316 312 309 310 310 310 312 312 310 307 303 299 297 294 292 292 289 288 287 286 nan nan nan nan nan nan nan nan nan nan nan nan 228 234 237 237 249 249 245 241 237 236 237 231 230 231 231 237
308 308 311 312 313 313 312 312 315 319 321 321 319 317 319 nan nan 319 nan nan nan nan nan nan 325 322 323 322 320 317 317 319 322 322 317 309 310 311 307 307 313 313 311 313 312 309 308 304 302 303 300 297 297 296 295 295 295 291 285 nan nan nan nan nan nan nan nan nan nan 231 232 234 238 241 250 248 244 240 238 236 228 227 230 227 232
304 307 308 307 309 311 310 313 317 320 320 318 317 317 316 318 322 324 323 321 323 324 323 319 318 319 320 320 317 318 320 323 320 313 309 316 319 317 310 311 316 317 313 311 311 309 308 308 307 305 303 302 301 302 303 303 303 299 293 287 nan nan nan nan nan nan nan nan nan nan 233 232 233 249 253 250 244 237 235 234 229 230 235 231 235
302 307 308 307 306 304 306 310 315 318 320 318 317 316 317 321 324 324 322 320 320 322 322 319 319 321 322 321 321 321 320 311 309 314 318 317 317 318 314 313 321 321 315 313 312 310 308 310 310 309 310 309 313 313 315 315 309 307 300 292 281 nan nan nan nan nan nan nan nan nan 228 229 230 237 246 246 247 246 239 235 227 227 234 238 237
302 303 304 304 301 300 303 310 316 318 318 318 316 317 320 323 323 321 320 320 319 319 320 319 320 324 324 321 317 317 308 311 318 325 325 320 317 317 315 311 308 308 310 312 311 310 311 311 315 325 321 319 320 321 nan nan nan nan 306 296 285 nan nan nan nan nan nan nan nan nan nan nan 226 235 241 239 241 244 241 237 229 224 225 227 232
300 303 304 301 298 299 305 314 318 318 317 315 314 317 320 320 318 318 319 319 319 319 320 323 323 319 316 315 318 311 313 317 nan 323 328 334 325 316 309 306 306 305 303 303 303 304 307 310 315 321 312 311 321 326 326 326 nan nan 313 308 300 289 nan nan nan nan nan nan nan nan nan nan nan nan 237 237 236 239 242 241 233 226 228 231 228
301 305 303 298 297 303 311 317 318 317 316 315 315 318 318 317 316 317 318 317 319 320 319 319 319 317 316 318 312 313 317 318 nan nan 329 329 324 316 311 307 306 305 300 298 297 296 295 301 293 283 289 305 294 305 313 317 314 315 314 304 nan nan nan nan nan nan nan nan nan nan nan nan nan nan 231 235 231 229 236 228 229 225 228 230 233
304 303 298 295 299 307 314 317 316 316 315 314 315 316 315 315 316 316 317 316 318 321 319 319 321 320 318 314 313 315 314 314 nan 321 319 315 318 318 310 306 304 303 299 295 296 296 296 288 289 303 304 310 304 309 310 310 309 308 310 303 292 nan nan nan nan nan nan nan nan nan nan nan nan nan nan 227 225 219 226 228 227 223 224 229 235
304 304 301 299 303 310 315 315 314 314 314 314 313 312 312 312 314 315 315 317 321 321 320 319 318 317 314 313 312 312 314 316 nan nan 315 312 314 312 307 303 301 301 298 292 293 292 291 298 306 308 311 312 312 312 312 310 308 309 308 297 284 nan nan nan nan nan nan nan nan nan nan nan nan nan nan nan 217 218 217 217 222 218 220 220 230
305 303 300 302 306 312 312 313 313 312 312 312 311 311 312 312 313 315 317 320 322 320 319 319 315 312 311 311 312 315 nan 317 nan 323 323 323 nan nan 308 305 303 302 295 294 301 303 300 304 305 310 312 313 313 315 313 310 308 308 308 298 281 nan nan nan nan nan nan nan nan nan nan nan nan nan nan nan nan 214 216 214 210 212 218 228 231
300 298 301 305 308 309 310 310 311 310 310 310 310 311 309 307 312 315 317 318 319 318 316 316 315 314 311 311 312 315 316 nan 326 325 327 nan nan 312 311 309 305 303 296 296 302 303 303 309 315 315 315 317 320 322 319 313 309 307 308 297 nan nan nan nan nan nan nan nan nan nan nan nan nan nan nan nan nan 220 218 209 210 217 211 223 231
299 302 303 305 306 307 308 309 309 309 308 308 308 309 310 311 317 318 317 319 319 316 314 314 312 311 311 313 313 316 318 322 nan nan 329 nan nan 313 309 305 303 302 297 297 298 300 306 319 327 326 323 320 319 322 316 309 309 311 312 301 nan nan nan nan nan nan nan nan nan nan nan nan nan nan nan nan nan nan 220 217 209 215 222 227 228
299 302 303 304 305 306 308 308 307 308 307 308 307 307 310 315 317 315 317 319 318 317 315 310 309 309 306 311 316 316 318 324 nan nan nan nan nan 316 309 305 306 303 296 296 301 304 302 311 322 325 325 325 321 315 304 308 317 319 318 nan nan nan nan nan nan nan nan nan nan nan nan nan nan nan nan nan nan nan nan nan 221 226 229 233 229
299 302 305 304 304 304 305 305 306 307 308 307 306 311 313 313 314 317 319 319 316 313 312 312 306 304 310 314 317 320 318 314 324 329 330 330 325 320 312 305 304 305 302 305 308 305 308 318 334 329 326 317 308 311 312 322 nan nan nan nan nan nan nan nan nan nan nan nan nan nan 195 nan nan nan nan nan nan nan nan nan 230 232 235 235 230
300 303 305 303 302 303 303 303 303 305 306 305 307 310 312 313 316 316 317 317 317 316 316 311 311 319 320 314 314 312 308 304 308 319 331 333 nan 316 311 305 304 306 306 306 305 307 310 311 319 324 316 310 319 325 328 nan nan nan nan nan nan nan nan nan nan nan nan nan nan 202 194 197 nan nan nan nan nan nan nan nan nan 240 234 235 234
299 301 300 301 303 304 301 300 302 305 304 303 306 311 310 309 306 308 311 313 313 313 310 309 313 314 313 311 309 305 304 306 298 305 321 323 nan 314 307 301 302 310 312 309 306 307 304 309 310 310 316 325 329 nan nan nan nan nan nan 315 304 302 nan nan nan nan nan nan nan nan 200 nan nan nan nan nan nan nan nan nan nan 247 238 232 231
296 297 299 303 304 300 295 293 297 299 301 306 310 311 308 306 309 307 308 310 309 307 307 308 303 305 308 300 294 295 299 290 294 288 312 319 321 319 307 296 289 300 309 310 307 301 304 312 312 320 318 315 317 327 nan 344 nan nan 332 314 307 nan nan nan nan nan nan nan nan 203 nan 200 nan nan nan nan nan nan nan nan nan 249 246 233 230
298 296 300 302 299 300 300 301 299 298 305 307 306 306 307 305 305 308 311 311 311 309 304 300 298 300 300 300 296 294 290 284 285 302 304 311 318 319 nan nan nan 302 309 308 304 307 310 309 315 309 nan 308 324 335 342 347 350 344 333 311 nan nan nan nan nan nan nan nan nan 206 202 204 205 206 206 nan nan 239 237 234 239 244 240 232 227
289 295 298 301 299 295 296 297 299 305 307 304 306 307 308 307 307 309 312 312 309 306 301 301 305 306 304 303 304 305 305 304 306 295 290 292 nan nan nan nan nan nan 301 305 308 312 306 305 313 nan nan 307 333 343 346 344 341 346 329 303 nan nan nan nan nan nan nan nan nan 208 205 205 206 206 203 203 nan 217 232 233 230 233 234 229 226
288 293 295 296 295 298 298 299 303 305 305 307 306 306 307 308 309 309 308 307 304 300 299 302 304 307 309 305 303 306 307 306 300 294 284 nan nan nan nan nan nan nan nan nan 314 307 nan nan nan nan nan 320 338 347 340 330 331 332 321 314 nan nan nan nan nan nan nan nan nan 211 nan 207 207 205 203 200 nan nan 215 218 224 227 227 228 225
288 293 294 292 295 298 304 308 307 307 307 307 308 309 309 309 309 306 305 303 301 301 302 303 302 301 303 302 305 306 305 305 302 293 283 nan nan nan nan nan nan nan nan nan nan nan nan nan 315 nan nan 326 331 330 327 nan nan nan 322 327 nan nan nan nan nan nan nan nan nan nan nan nan nan nan 199 203 209 208 nan 215 216 215 219 225 226
292 291 292 297 300 301 303 306 306 304 303 308 312 313 312 308 303 301 299 297 300 299 297 296 297 298 300 302 302 302 303 303 296 nan nan nan nan nan nan nan nan nan nan 285 nan nan nan 297 300 nan nan 339 338 341 nan nan nan nan 336 nan nan nan nan nan nan nan nan nan nan nan nan nan nan nan nan nan 206 208 209 215 217 214 215 nan 227
295 296 298 299 295 296 297 301 304 306 308 307 304 302 299 300 298 293 291 290 291 292 292 293 295 298 304 305 306 302 302 300 nan nan nan nan nan nan nan nan nan nan nan nan nan nan nan 306 306 300 309 312 nan nan nan nan nan nan nan 345 nan nan nan nan nan nan nan nan nan nan nan nan nan nan nan nan nan 211 212 218 221 nan 217 219 223
298 298 296 293 293 294 296 300 304 306 304 297 nan nan nan 295 292 nan nan nan nan nan nan nan nan nan nan 300 302 303 304 nan nan nan nan nan nan nan nan nan nan nan nan nan nan nan nan 305 nan nan nan nan nan nan nan nan nan nan nan nan nan nan nan nan nan nan nan nan nan nan nan nan nan nan nan nan nan nan nan 217 nan nan nan nan 226
296 296 294 295 299 299 300 302 302 301 301 nan nan nan nan nan nan nan nan nan nan nan nan nan nan nan nan nan nan nan nan nan nan nan nan nan nan nan nan nan nan nan nan nan nan nan nan nan nan nan nan nan nan nan nan nan nan nan nan nan nan 359 3 nan nan nan nan nan nan nan nan nan nan nan nan nan nan nan nan nan nan nan nan nan 226
293 295 295 297 294 296 302 300 297 298 300 300 nan nan nan nan nan nan nan nan nan nan nan nan nan nan nan nan nan nan nan nan nan nan nan nan nan nan nan nan nan nan nan nan nan nan nan nan nan nan nan nan nan nan nan nan nan nan nan nan nan nan nan 13 16 nan nan nan nan nan nan nan nan nan nan nan nan nan nan nan nan nan nan nan nan
293 294 296 294 292 295 296 298 297 296 298 297 297 298 nan nan 288 nan nan nan nan nan nan nan nan nan nan nan nan nan nan nan nan nan nan nan nan nan nan nan nan nan nan nan nan nan nan nan nan nan nan nan nan nan nan nan nan nan nan nan nan nan nan nan nan nan nan nan nan nan nan nan nan nan nan nan nan nan nan nan nan nan nan nan nan
296 297 296 293 293 295 298 296 294 295 293 293 293 296 298 297 295 nan nan nan nan nan nan nan nan nan nan nan nan nan nan nan nan nan nan nan nan nan nan nan nan nan nan nan nan nan nan nan nan nan nan nan nan nan nan nan nan nan nan nan nan nan nan nan nan nan nan nan nan nan nan nan nan nan nan nan nan nan nan nan nan nan nan nan nan
294 293 293 295 296 297 299 299 297 294 292 289 289 293 295 295 298 nan nan nan nan nan nan nan nan nan nan nan nan nan nan nan nan nan nan nan nan nan nan nan nan nan nan nan nan nan nan nan nan nan nan nan nan nan nan nan nan nan nan nan nan nan nan nan nan nan nan nan nan nan nan nan nan nan nan nan nan nan nan nan nan nan nan nan nan
295 295 299 297 296 298 296 292 291 292 291 291 293 292 292 293 297 298 nan nan nan nan nan nan nan nan nan nan nan nan nan nan nan nan nan nan nan nan nan nan nan nan nan nan nan nan nan nan nan nan nan nan nan nan nan nan nan nan nan nan nan nan nan nan nan nan nan nan nan nan nan nan nan nan nan nan nan nan nan nan nan nan nan nan nan
296 298 296 298 297 291 291 291 291 292 293 295 292 291 291 293 295 295 295 296 295 nan nan nan nan nan nan nan nan nan nan nan nan nan nan nan nan nan nan nan nan nan nan nan nan nan nan nan nan nan nan nan nan nan nan nan nan nan nan nan nan nan nan nan nan nan nan nan nan nan nan nan nan nan nan nan nan nan nan nan nan nan nan nan nan
296 293 293 294 290 289 289 290 293 293 292 290 292 291 292 292 294 295 296 295 nan nan nan nan nan nan nan nan nan nan nan nan nan nan nan nan nan nan nan nan nan nan nan nan nan nan nan nan nan nan nan nan nan nan nan nan nan nan nan nan nan nan nan nan nan nan nan nan nan nan nan nan nan nan nan nan nan nan nan nan nan nan nan 213 216
292 296 297 294 293 290 288 289 290 289 287 288 290 293 293 nan nan nan nan nan nan nan nan nan nan nan nan nan nan nan nan nan nan nan nan nan nan nan nan nan nan nan nan nan nan nan nan nan nan nan nan nan nan nan nan nan nan nan nan nan nan nan nan nan nan nan nan nan nan nan nan nan nan nan nan nan nan nan nan nan nan nan nan nan 218
290 287 289 293 296 295 292 289 291 291 290 290 291 nan nan nan nan nan nan nan nan nan nan nan nan nan nan nan nan nan nan nan nan nan nan nan nan nan nan nan nan nan nan nan nan nan nan nan nan nan nan nan nan nan nan nan nan nan nan nan nan nan nan nan nan nan nan nan nan nan nan nan nan nan nan nan nan nan nan nan nan nan nan nan nan
289 289 288 286 291 294 296 296 293 293 294 295 nan nan nan nan nan nan nan nan nan nan nan nan nan nan nan nan nan nan nan nan nan nan nan nan nan nan nan nan nan nan nan nan nan nan nan nan nan nan nan nan nan nan nan nan nan nan nan nan nan nan nan nan nan nan nan nan nan nan nan nan nan nan nan nan nan nan nan nan nan nan nan nan nan
290 289 289 287 289 291 292 292 291 292 293 nan nan nan nan nan nan nan nan nan nan nan nan nan nan nan nan nan nan nan nan nan nan nan nan nan nan nan nan nan nan nan nan nan nan nan nan nan nan nan nan nan nan nan nan nan nan nan nan nan nan nan nan nan nan nan nan nan nan nan nan nan nan nan nan nan nan nan nan nan nan nan nan nan nan
288 289 289 290 292 290 287 287 288 290 nan nan nan nan nan nan nan nan nan nan nan nan nan nan nan nan nan nan nan nan nan nan nan nan nan nan nan nan nan nan nan nan nan nan nan nan nan nan nan nan nan nan nan nan nan nan nan nan nan nan nan nan nan nan nan nan nan nan nan nan nan nan nan nan nan nan nan nan nan nan nan nan nan nan nan
288 288 287 287 287 287 287 288 290 nan nan nan nan nan nan nan nan nan nan nan nan nan nan nan nan nan nan nan nan nan nan nan nan nan nan nan nan nan nan nan nan nan nan nan nan nan nan nan nan nan nan nan nan nan nan nan nan nan nan nan nan nan nan nan nan nan nan nan nan nan nan nan nan nan nan nan nan nan nan nan nan nan nan nan nan
290 290 289 289 286 282 284 288 nan nan nan nan nan nan nan nan nan nan nan nan nan nan nan nan nan nan nan nan nan nan nan nan nan nan nan nan nan nan nan nan nan nan nan nan nan nan nan nan nan nan nan nan nan nan nan nan nan nan nan nan nan nan nan nan nan nan nan nan nan nan nan nan nan nan nan nan nan nan nan nan nan nan nan nan nan
286 283 282 283 285 285 nan nan nan nan nan nan nan nan nan nan nan nan nan nan nan nan nan nan nan nan nan nan nan nan nan nan nan nan nan nan nan nan nan nan nan nan nan nan nan nan nan nan nan nan nan nan nan nan nan nan nan nan nan nan nan nan nan nan nan nan nan nan nan nan nan nan nan nan nan nan nan nan nan nan nan nan nan nan nan
284 283 284 284 284 nan nan nan nan nan nan nan nan nan nan nan nan nan nan nan nan nan nan nan nan nan nan nan nan nan nan nan nan nan nan nan nan nan nan nan nan nan nan nan nan nan nan nan nan nan nan nan nan nan nan nan nan nan nan nan nan nan nan nan nan nan nan nan nan nan nan nan nan nan nan nan nan nan nan nan nan nan nan nan nan
nan nan nan nan nan nan nan nan nan nan nan nan nan nan nan nan nan nan nan nan nan nan nan nan nan nan nan nan nan nan nan nan nan nan nan nan nan nan nan nan nan nan nan nan nan nan nan nan nan nan nan nan nan nan nan nan nan nan nan nan nan nan nan nan nan nan nan nan nan nan nan nan nan nan nan nan nan nan nan nan nan nan nan nan nan
nan nan nan nan nan nan nan nan nan nan nan nan nan nan nan nan nan nan nan nan nan nan nan nan nan nan nan nan nan nan nan nan nan nan nan nan nan nan nan nan nan nan nan nan nan nan nan nan nan nan nan nan nan nan nan nan nan nan nan nan nan nan nan nan nan nan nan nan nan nan nan nan nan nan nan nan nan nan nan nan nan nan nan nan nan
nan nan nan nan nan nan nan nan nan nan nan nan nan nan nan nan nan nan nan nan nan nan nan nan nan nan nan nan nan nan nan nan nan nan nan nan nan nan nan nan nan nan nan nan nan nan nan nan nan nan nan nan nan nan nan nan nan nan nan nan nan nan nan nan nan nan nan nan nan nan nan nan nan nan nan nan nan nan nan nan nan nan nan nan nan
nan nan nan nan nan nan nan nan nan nan nan nan nan nan nan nan nan nan nan nan nan nan nan nan nan nan nan nan nan nan nan nan nan nan nan nan nan nan nan nan nan nan nan nan nan nan nan nan nan nan nan nan nan nan nan nan nan nan nan nan nan nan nan nan nan nan nan nan nan nan nan nan nan nan nan nan nan nan nan nan nan nan nan nan nan
nan nan nan nan nan nan nan nan nan nan nan nan nan nan nan nan nan nan nan nan nan nan nan nan nan nan nan nan nan nan nan nan nan nan nan nan nan nan nan nan nan nan nan nan nan nan nan nan nan nan nan nan nan nan nan nan nan nan nan nan nan nan nan nan nan nan nan nan nan nan nan nan nan nan nan nan nan nan nan nan nan nan nan nan nan